ROMMA est une association bénévole à but non lucratif. Votre soutien est indispensable : ADHERER à ROMMA ou FAIRE un DON

Le Versoud - (38, Isère)

Vallée du Grésivaudan (220 m)   Longitude: 05° 51' 44" E   Latitude: 45° 13' 06" N Station partenaire n°6
 

Détail journalier du     <<     >>

Température Humidité Pression Vent Dir Rafale Dir. rafale Ensol.
Heure (°C) (%) (hPa) (km/h) (km/h) (min)
01:00 20.267101402NNE0
02:00 19.173101400---0
03:00 18.276101400---0
04:00 17.778101500---0
05:00 16.781101500---0
06:00 16.183101500---0
07:00 15.984101600---0
08:00 18.473101600---35
09:00 21.659101600---60
10:00 23.254101600---60
11:00 24.551101502NNE60
12:00 25.448101505NNE60
13:00 26.445101403N60
14:00 27.842101408NNO60
15:00 28.839101306NO60
16:00 30.339101306NO60
17:00 30.736101205NO60
18:00 31.235101203NO60
19:00 31.438101203NO60
20:00 30.543101203NO60
21:00 27.850101202NO25
22:00 25.454101300---0
23:00 24.262101302NO0
minuit 22.464101300---0

Graphique du 19-07-2019

 

Serveur OMMA